Temperature
20 20 19 19 19 19 19 19 19 19 19 19 19 19 19 19 19 19 19 19 19 19 19 18 18 18 18 18 18 18 18 18 18 18 17 18 18 18 18 18 18 17 17
20 20 19 19 19 19 19 19 19 19 19 19 19 19 19 19 19 19 19 19 19 19 18 18 18 18 18 18 18 18 18 18 18 18 17 17 17 18 17 17 17 17 17
20 20 19 19 19 19 19 19 19 19 19 19 19 19 19 19 19 19 19 19 19 19 18 18 18 18 18 18 18 18 18 18 18 18 17 17 17 17 17 17 17 17 17
20 20 20 19 19 19 19 19 19 19 19 19 19 19 19 19 19 19 19 19 19 18 18 18 18 18 18 18 18 18 18 18 18 17 17 17 17 17 17 17 17 17 17
20 20 20 19 19 19 19 19 19 19 19 19 19 19 19 19 19 19 19 19 19 18 18 18 18 18 18 18 18 18 18 18 17 17 17 17 17 17 17 17 17 17 17
20 20 19 19 19 19 19 19 19 19 19 19 19 19 19 19 19 19 19 18 18 18 18 18 18 18 18 18 18 18 18 18 17 17 17 17 17 17 17 17 17 17 17
20 20 19 19 19 19 19 19 19 19 19 19 19 19 19 19 19 19 19 19 19 18 18 18 18 18 18 18 18 18 18 18 17 17 17 17 17 17 17 17 17 17 17
20 19 19 19 19 19 19 19 19 19 19 19 19 19 19 19 19 19 19 19 19 19 18 18 18 18 18 18 18 18 18 17 17 17 17 17 17 17 17 17 17 17 17
19 19 19 19 19 19 19 19 19 19 19 19 19 19 19 19 19 19 19 19 19 19 18 18 18 18 18 18 18 18 17 17 17 17 17 17 17 17 17 17 17 17 17
19 19 19 19 19 19 19 19 19 19 19 19 19 19 19 18 18 18 19 19 18 18 18 18 18 18 18 18 18 18 18 17 17 17 17 17 17 17 17 17 17 17 17
19 19 19 19 19 19 19 19 19 19 19 19 19 19 19 18 18 18 18 18 18 18 18 18 18 18 18 18 18 18 18 18 18 17 17 17 17 17 17 17 17 17 17
19 19 19 19 19 19 19 19 19 19 19 19 19 19 19 18 18 18 18 18 18 18 18 18 18 18 18 18 18 18 18 18 18 17 17 17 17 17 17 17 17 17 17
19 19 19 19 19 19 19 19 19 19 19 18 18 18 18 18 18 18 18 18 18 18 18 18 18 18 18 18 18 18 18 18 18 17 17 17 17 17 17 17 17 17 17
19 19 19 19 19 19 19 19 18 18 18 18 18 18 18 18 18 18 18 18 18 18 18 18 18 18 18 18 18 18 18 17 17 17 17 17 17 17 17 17 17 17 17
19 19 19 19 19 19 19 19 19 18 18 18 18 18 18 18 18 18 18 18 18 18 18 18 18 18 18 18 18 18 18 17 17 17 17 17 17 17 17 17 17 17 17
19 19 19 19 19 19 19 19 19 19 18 18 18 18 18 18 18 18 18 18 18 18 18 18 18 18 18 18 18 17 17 17 17 17 17 17 17 17 17 17 17 17 17
19 19 19 19 19 19 19 19 18 18 18 18 18 18 18 18 18 18 18 18 18 18 18 18 18 18 18 18 18 17 17 17 17 17 17 17 17 17 17 17 17 16 17
20 19 19 19 19 19 19 18 18 18 18 18 18 18 18 18 18 18 18 18 18 18 18 18 18 18 17 17 17 17 17 17 17 17 17 17 17 17 17 17 17 17 17
20 19 19 19 19 19 18 18 18 18 18 18 18 18 18 18 18 18 18 18 18 18 18 18 18 18 17 17 17 17 17 17 17 17 17 17 17 17 17 17 17 17 17
20 20 19 19 19 19 19 18 18 18 18 18 18 18 18 18 18 18 18 18 18 18 18 18 18 17 17 17 17 17 17 17 17 17 17 17 17 17 17 17 17 17 17
20 20 20 19 19 19 19 19 19 19 18 18 18 18 18 18 18 18 18 18 18 18 18 18 18 17 17 17 17 17 17 17 17 17 17 17 17 17 17 17 17 17 17
20 20 20 19 19 19 19 19 19 19 18 18 18 18 18 18 18 18 18 18 18 18 18 18 18 17 17 17 17 17 17 17 17 17 17 17 17 17 17 17 17 17 17
20 20 20 20 19 19 19 19 19 19 19 19 18 18 18 18 18 18 18 18 18 18 18 18 18 18 17 17 17 17 17 17 17 17 17 17 17 17 17 17 17 17 16
21 20 20 20 20 19 19 19 19 19 19 19 19 18 18 18 18 18 18 18 18 18 18 18 18 18 17 17 17 17 17 17 17 17 17 17 17 17 17 17 17 16 16
21 21 20 20 20 19 19 19 19 19 19 19 19 19 18 18 18 18 18 18 18 18 18 17 17 17 17 17 17 17 17 17 17 17 16 17 17 17 17 17 16 16 16
21 21 20 20 20 20 19 19 19 19 19 19 19 19 18 18 18 18 18 18 18 18 18 17 17 17 17 17 17 17 17 17 17 17 17 17 17 17 17 16 16 16 16
Wind_Speed
1 3 8 8 8 8 8 9 9 10 10 10 11 10 10 10 9 9 9 9 10 10 11 11 12 13 12 12 12 12 12 12 13 13 13 13 12 12 12 12 11 10 13
3 6 8 8 8 8 8 9 9 9 9 9 10 10 9 9 9 8 8 9 10 10 10 11 12 12 11 11 11 11 12 12 13 12 12 11 11 11 12 12 12 10 13
4 5 7 7 8 8 8 8 9 9 9 9 9 9 9 9 8 8 8 8 9 9 10 11 12 12 11 11 11 11 12 12 12 11 10 8 10 11 10 11 12 12 12
5 6 6 7 8 8 7 8 8 8 8 8 8 8 8 8 7 7 7 8 8 9 10 10 11 11 10 11 11 11 12 12 11 10 7 6 7 10 10 12 13 13 13
5 5 6 8 8 8 7 7 7 8 7 7 7 7 7 7 7 6 6 7 8 8 9 9 10 10 10 10 11 11 12 11 10 8 7 6 6 9 11 12 13 13 12
4 4 6 7 7 7 6 6 7 7 7 7 7 7 6 6 6 6 6 7 7 7 8 8 9 9 10 10 10 10 10 10 8 7 6 6 6 9 10 11 12 13 12
3 3 5 6 7 7 6 6 6 6 6 7 7 6 6 6 6 6 6 6 6 6 7 7 8 8 8 9 9 9 9 9 7 6 5 6 6 8 9 11 11 12 12
4 3 3 5 6 6 6 6 6 6 6 6 6 6 6 5 5 5 5 5 5 6 6 6 6 7 7 8 8 8 8 8 6 6 5 5 7 8 9 10 11 11 11
4 3 2 2 4 5 5 5 5 5 5 5 5 6 6 5 5 5 4 4 5 5 5 5 5 5 5 6 7 7 7 7 6 5 5 5 7 8 8 8 10 10 10
4 3 2 2 3 3 3 4 3 4 4 4 5 5 5 4 4 3 3 3 4 4 4 4 4 4 4 6 7 6 7 6 6 5 5 5 7 8 7 8 9 9 9
4 3 2 2 2 2 2 3 2 3 3 3 4 4 3 2 2 1 2 3 3 4 4 3 3 3 4 5 6 5 5 4 6 5 5 6 8 8 7 8 9 9 9
2 1 2 1 1 1 1 2 2 2 2 3 3 2 2 2 2 2 1 2 2 2 2 2 2 3 3 3 3 3 3 4 4 4 4 6 7 7 8 8 9 9 9
1 1 1 1 1 1 1 2 2 2 2 3 3 2 2 2 2 1 1 1 1 1 1 1 1 1 2 2 2 2 2 3 3 3 4 6 6 7 8 9 10 9 10
2 1 1 1 1 1 1 1 1 1 1 2 1 1 1 1 1 1 1 1 1 1 1 0 0 1 2 2 3 3 2 2 2 3 4 5 6 7 8 8 10 10 11
2 1 1 2 1 1 2 1 2 1 1 1 1 1 2 1 0 1 1 1 1 0 0 0 1 1 2 2 2 2 2 2 2 2 3 4 6 6 7 8 10 10 11
1 0 1 2 1 2 2 1 1 1 1 1 1 2 2 2 1 0 1 1 1 0 0 1 1 1 1 1 1 1 2 2 2 2 2 3 4 6 7 7 8 9 10
2 1 1 2 1 1 1 1 1 1 1 1 2 2 2 3 2 2 1 0 0 0 1 1 1 1 1 2 1 1 1 2 2 2 2 2 3 4 5 6 7 8 9
2 1 1 1 2 1 0 0 1 1 1 1 1 2 2 3 3 2 1 1 1 1 1 1 1 1 1 2 1 1 1 1 1 2 2 2 2 2 2 4 6 7 8
2 2 1 0 1 1 0 0 0 0 0 1 1 1 1 2 2 2 1 1 1 1 1 1 1 1 1 1 1 1 1 0 1 1 1 1 2 2 2 2 4 5 7
2 2 2 1 1 1 1 1 1 1 1 1 1 1 1 2 2 2 1 1 1 2 1 1 2 1 1 1 2 2 2 1 1 1 1 1 1 1 2 2 2 2 4
2 2 2 1 1 1 1 1 0 1 1 1 1 2 2 2 2 2 2 1 2 2 2 2 2 2 1 1 2 2 2 3 2 1 0 1 1 1 1 2 2 1 1
3 3 2 2 2 2 1 1 1 1 1 1 1 1 1 2 2 3 2 2 2 2 2 2 2 1 1 1 2 2 1 2 2 1 1 1 1 1 1 1 2 2 2
4 4 3 3 2 2 1 1 1 1 1 1 2 1 1 1 1 2 2 2 2 2 2 2 3 3 1 1 1 2 2 1 1 1 1 0 0 1 1 1 2 2 3
5 4 3 3 2 2 2 2 2 1 2 2 2 2 2 1 1 1 2 2 2 2 2 2 2 2 3 2 1 1 1 2 1 0 1 1 0 0 1 1 1 2 2
5 4 4 3 2 2 2 3 2 2 2 2 2 2 2 1 1 1 2 2 2 2 2 2 2 2 2 2 2 1 1 1 1 1 1 1 1 1 1 1 1 1 2
3 3 3 3 2 2 2 2 2 2 2 1 2 2 2 1 1 1 1 2 2 2 2 2 2 3 2 2 2 2 2 2 2 2 2 1 1 1 1 1 1 2 3
Wind_Direction
196 160 149 147 139 132 126 124 122 123 126 125 121 122 126 126 124 123 122 122 121 122 125 129 132 132 132 133 135 137 138 140 140 140 141 142 142 141 141 143 142 140 140
154 146 147 143 134 128 126 125 122 122 125 124 121 124 129 128 125 125 124 125 125 124 125 130 132 133 133 135 137 137 137 138 139 139 141 143 145 143 146 149 149 144 144
126 134 143 139 132 129 126 123 124 125 125 123 121 125 127 128 126 124 123 123 126 128 127 130 131 134 134 136 137 138 138 138 136 138 138 136 146 151 152 156 154 149 147
127 133 143 140 137 134 128 121 123 124 123 124 125 126 126 127 126 124 123 128 132 132 131 132 134 135 135 136 138 139 139 139 137 135 128 131 147 152 150 153 152 150 150
114 130 144 142 138 133 127 119 120 122 124 127 125 126 128 129 125 125 128 130 134 136 136 137 138 136 135 136 138 139 139 138 138 132 124 123 136 148 148 150 150 150 152
106 127 144 141 137 132 127 123 121 123 129 127 124 128 132 130 125 124 128 128 135 138 140 142 142 139 138 137 140 143 141 141 137 132 132 133 140 152 151 153 154 153 154
103 115 132 134 136 132 127 125 121 125 127 122 121 124 124 123 124 122 126 129 135 138 143 146 146 142 141 139 142 146 146 145 137 133 139 147 147 153 157 157 157 158 159
114 106 116 129 128 122 118 117 117 123 123 120 118 115 114 112 114 117 115 119 127 140 146 147 147 146 144 143 144 146 148 149 146 146 148 152 156 158 161 162 161 164 164
93 90 88 113 115 118 120 113 108 111 114 117 119 115 111 111 112 112 113 120 124 133 144 147 148 149 151 151 152 154 155 150 148 152 156 160 167 169 168 165 165 168 171
72 70 70 59 68 89 110 112 109 113 109 107 109 108 107 110 110 103 113 135 137 137 143 147 146 148 152 154 159 159 157 149 151 154 161 170 173 174 174 171 169 166 168
68 46 45 43 53 65 97 109 121 127 117 104 102 101 95 85 91 90 100 125 132 142 146 147 138 134 142 149 152 152 148 143 152 158 169 176 178 179 180 177 171 169 170
79 43 44 48 63 77 93 77 60 85 91 89 81 88 87 72 78 66 56 98 100 117 129 132 128 125 121 124 131 130 120 137 154 167 178 182 185 185 184 181 174 176 176
133 96 62 63 74 91 81 70 57 69 77 81 78 80 87 73 58 48 24 355 359 43 32 63 84 99 108 115 117 113 135 154 169 179 185 190 195 194 191 187 184 185 183
104 106 92 93 93 100 104 96 94 84 84 81 86 100 112 60 34 11 21 10 16 352 1 25 126 94 104 121 128 128 141 168 176 184 195 202 204 201 198 195 190 186 187
107 80 81 90 100 120 103 108 119 131 140 145 170 200 184 139 41 2 354 7 14 15 79 71 82 88 93 109 134 141 161 179 181 177 196 209 209 208 207 205 197 195 192
153 158 80 80 77 104 106 118 145 160 179 183 220 228 197 188 183 203 16 12 350 274 179 140 114 85 76 94 105 137 166 180 184 169 182 209 219 219 215 211 203 200 195
177 165 142 146 108 111 130 186 185 188 180 195 235 237 208 197 188 182 152 115 297 180 132 106 73 82 96 94 88 111 161 171 169 172 184 201 217 222 218 212 212 212 205
160 150 163 166 127 136 146 196 185 188 184 215 240 244 216 200 195 181 159 203 221 153 129 130 112 92 85 84 71 42 72 124 147 168 171 194 188 200 224 221 216 216 214
174 166 164 154 130 145 111 85 83 168 202 258 274 260 238 212 193 172 181 217 186 132 140 157 114 119 116 95 74 56 51 79 180 164 170 191 186 189 213 238 229 221 219
170 167 168 161 132 107 87 55 21 8 336 282 247 252 240 219 190 171 171 204 161 140 137 137 122 115 137 135 98 65 45 48 92 144 196 186 190 202 211 222 231 248 232
169 172 178 170 163 119 105 118 134 290 288 287 263 253 240 225 192 180 187 183 162 161 174 158 139 123 119 112 89 55 30 45 71 70 156 160 195 197 176 197 209 218 231
198 199 193 200 191 178 169 164 182 202 256 263 285 272 242 233 209 193 185 188 171 165 157 157 145 137 156 121 118 111 34 14 20 37 80 152 215 182 185 195 190 190 183
210 211 213 216 210 206 181 114 66 36 2 353 330 317 283 246 223 187 169 181 184 178 191 197 177 164 173 125 107 133 138 204 311 3 29 58 113 161 222 183 172 185 181
212 198 201 214 212 209 175 159 176 195 245 265 279 290 295 275 217 180 157 185 184 181 194 204 176 172 160 170 135 94 132 148 150 326 352 10 7 182 224 201 187 180 170
201 191 194 196 208 206 185 187 194 227 252 293 322 323 316 319 273 197 172 183 187 182 189 185 165 170 166 168 166 152 115 85 121 160 237 303 343 313 251 231 210 196 189
195 189 181 183 214 203 190 194 200 225 255 299 308 304 301 301 293 266 206 193 192 180 181 179 167 172 176 165 166 162 157 164 176 171 197 228 279 293 282 251 220 218 209
Height
1501 1501 1501 1501 1502 1502 1503 1503 1504 1505 1506 1506 1507 1507 1508 1508 1508 1508 1508 1509 1509 1510 1512 1513 1515 1517 1520 1521 1523 1525 1526 1527 1528 1529 1531 1532 1533 1534 1536 1537 1539 1541 1543
1502 1502 1503 1503 1503 1504 1504 1505 1506 1506 1507 1508 1508 1509 1509 1510 1510 1510 1510 1511 1511 1513 1514 1515 1517 1519 1521 1522 1524 1525 1526 1528 1529 1530 1531 1532 1533 1534 1535 1536 1538 1540 1543
1504 1504 1504 1505 1506 1506 1507 1507 1507 1508 1508 1509 1509 1510 1510 1511 1511 1511 1512 1512 1513 1514 1515 1517 1519 1520 1522 1523 1524 1526 1527 1528 1530 1531 1531 1532 1533 1533 1533 1534 1537 1540 1543
1505 1506 1506 1507 1508 1508 1509 1509 1509 1510 1510 1511 1511 1512 1512 1512 1512 1512 1513 1513 1514 1516 1517 1519 1520 1522 1523 1524 1525 1527 1528 1529 1530 1531 1532 1532 1533 1533 1530 1531 1536 1540 1542
1507 1508 1508 1509 1509 1510 1511 1511 1511 1512 1512 1512 1513 1513 1513 1513 1513 1514 1514 1515 1516 1517 1519 1520 1521 1523 1524 1525 1526 1527 1528 1530 1531 1532 1532 1533 1533 1533 1532 1533 1536 1540 1543
1509 1510 1510 1511 1511 1512 1512 1513 1513 1513 1514 1514 1514 1514 1514 1515 1515 1515 1516 1516 1517 1519 1520 1521 1523 1524 1525 1526 1527 1528 1529 1531 1532 1533 1533 1533 1534 1534 1535 1536 1538 1541 1543
1511 1512 1512 1513 1513 1514 1515 1515 1515 1515 1515 1515 1516 1516 1516 1516 1516 1517 1517 1518 1519 1520 1521 1522 1524 1525 1526 1527 1528 1529 1530 1531 1532 1533 1533 1534 1534 1535 1536 1538 1539 1541 1543
1513 1514 1514 1515 1515 1516 1516 1517 1517 1517 1517 1517 1517 1517 1518 1518 1518 1518 1519 1519 1520 1521 1522 1523 1525 1525 1526 1527 1528 1530 1531 1532 1533 1533 1534 1534 1535 1535 1537 1538 1540 1541 1543
1515 1515 1516 1517 1517 1518 1518 1518 1518 1519 1519 1519 1519 1519 1519 1519 1520 1520 1520 1521 1521 1522 1523 1524 1525 1526 1527 1528 1529 1530 1531 1532 1533 1534 1534 1535 1536 1536 1537 1538 1540 1541 1543
1516 1517 1518 1518 1518 1519 1519 1519 1519 1520 1520 1520 1520 1520 1521 1521 1521 1521 1522 1522 1523 1523 1524 1525 1526 1527 1527 1528 1529 1531 1532 1533 1533 1534 1535 1535 1536 1536 1537 1538 1540 1541 1542
1518 1518 1519 1519 1520 1520 1520 1521 1521 1521 1521 1521 1522 1522 1522 1522 1522 1522 1523 1523 1524 1524 1525 1526 1527 1527 1528 1529 1530 1531 1533 1533 1534 1535 1535 1536 1536 1537 1537 1539 1540 1541 1542
1519 1520 1520 1521 1521 1521 1521 1522 1522 1522 1522 1523 1523 1523 1523 1524 1523 1523 1524 1525 1525 1526 1526 1527 1528 1529 1529 1530 1531 1532 1533 1534 1534 1535 1535 1536 1537 1537 1537 1539 1540 1541 1542
1521 1521 1521 1522 1522 1522 1522 1523 1523 1524 1524 1524 1524 1524 1525 1525 1525 1525 1525 1526 1526 1527 1528 1528 1529 1529 1530 1531 1531 1532 1533 1534 1535 1535 1536 1536 1537 1537 1538 1539 1539 1541 1542
1522 1522 1523 1523 1523 1523 1524 1524 1524 1525 1525 1525 1525 1525 1526 1526 1526 1526 1526 1527 1527 1528 1528 1529 1530 1530 1531 1532 1532 1533 1534 1534 1535 1536 1536 1536 1537 1537 1537 1538 1539 1540 1542
1523 1524 1524 1524 1524 1524 1525 1525 1525 1525 1526 1526 1526 1526 1527 1527 1527 1527 1527 1528 1528 1529 1529 1530 1530 1531 1532 1532 1533 1534 1534 1535 1535 1536 1536 1536 1536 1537 1537 1537 1538 1540 1542
1525 1525 1525 1525 1525 1526 1526 1526 1526 1526 1527 1527 1527 1527 1528 1528 1528 1528 1528 1528 1529 1529 1529 1530 1530 1531 1532 1532 1533 1533 1534 1535 1536 1536 1536 1536 1536 1536 1537 1537 1538 1539 1541
1526 1526 1526 1526 1526 1526 1527 1527 1527 1527 1527 1527 1528 1528 1528 1528 1528 1528 1528 1528 1529 1529 1530 1530 1531 1531 1532 1532 1533 1533 1534 1535 1536 1536 1536 1536 1536 1536 1537 1537 1537 1539 1540
1526 1526 1527 1527 1527 1527 1527 1527 1527 1528 1528 1528 1528 1528 1528 1528 1528 1528 1528 1529 1529 1529 1530 1530 1530 1531 1531 1532 1533 1534 1534 1535 1535 1536 1536 1536 1536 1536 1537 1537 1537 1538 1539
1526 1527 1527 1527 1527 1527 1528 1528 1528 1528 1528 1528 1528 1528 1528 1528 1529 1529 1529 1529 1529 1529 1529 1530 1530 1531 1531 1532 1533 1533 1534 1534 1535 1535 1535 1535 1536 1536 1536 1537 1537 1538 1538
1527 1527 1527 1528 1528 1528 1528 1528 1528 1528 1528 1528 1528 1528 1528 1528 1529 1529 1529 1529 1529 1529 1529 1530 1530 1531 1531 1532 1532 1533 1533 1534 1534 1535 1535 1535 1536 1536 1536 1537 1537 1538 1538
1526 1526 1527 1528 1528 1528 1528 1528 1528 1528 1528 1528 1528 1528 1528 1528 1529 1528 1528 1529 1529 1529 1529 1530 1530 1531 1531 1532 1532 1533 1533 1534 1534 1534 1535 1535 1535 1536 1536 1537 1537 1537 1537
1526 1526 1527 1528 1528 1528 1528 1529 1529 1529 1529 1529 1528 1528 1528 1528 1528 1528 1528 1529 1529 1529 1529 1530 1530 1531 1531 1532 1532 1532 1533 1534 1533 1534 1534 1534 1535 1536 1536 1537 1537 1537 1537
1526 1526 1527 1528 1528 1529 1529 1529 1529 1529 1529 1529 1528 1528 1528 1528 1528 1527 1527 1528 1528 1528 1529 1529 1530 1530 1531 1531 1531 1532 1533 1533 1533 1534 1534 1534 1535 1535 1536 1536 1536 1536 1537
1525 1526 1527 1527 1528 1529 1529 1529 1529 1528 1528 1528 1528 1528 1527 1527 1527 1527 1527 1527 1527 1527 1528 1529 1529 1529 1530 1530 1531 1532 1533 1533 1533 1533 1534 1534 1534 1535 1535 1535 1536 1536 1536
1524 1525 1526 1527 1527 1528 1528 1528 1528 1528 1528 1528 1528 1527 1527 1526 1526 1526 1526 1526 1526 1526 1527 1528 1528 1529 1529 1530 1530 1531 1531 1532 1533 1533 1533 1533 1534 1534 1534 1534 1535 1535 1535
1523 1524 1525 1526 1526 1527 1527 1528 1528 1528 1527 1527 1527 1526 1526 1525 1525 1525 1525 1525 1525 1525 1526 1526 1527 1527 1528 1529 1529 1530 1530 1531 1531 1532 1532 1532 1532 1533 1533 1533 1533 1534 1534